Retour au catalogue

STARLINK-34653

ActifCommunicationsVLEO
NORAD 64917·PAYLOAD·🇺🇸 United States

Lancé Jul 26, 2025 depuis Cape Canaveral Space Force Station

Loading…

Prochains Passages (prochaines 24 heures)

TLE

FraisSource: CelesTrak SupGP

Époque: Sep 15, 2026, 03:22 UTC

1 64917C 25157P   26258.14076389 -.00044281  00000+0 -14239-2 0  2587
2 64917  53.1591 184.5265 0001387  86.6700 356.4577 15.31724575    18

Suivez STARLINK-34653 en temps réel avec AllMySat

Download on the App Store